Погода в Чигиринке

Беларусь     53°25′23″N   29°51′00″E
темп.,
°C
ветер,
м/с
пор.,
м/с
влажн.,
%
обл.,
%
осадки,
мм/ч
давл.,
гПа
погр.,
м
11 апреля, вс
вс1100:00+6ю412705 0.0 1022266
03:00+5ю311755 0.0 1024256
06:00+4ю39815 0.0 1024180
09:00+9ююз36635 0.0 1026267
12:00+14ю46495 0.0 1026838
15:00+16ю45426 0.0 10261495
18:00+15ююв35485 0.0 1026671
21:00+9юв310691 0.0 1028176
12 апреля, пн
пн1200:00+7ююв26720 0.0 1029115
03:00+6юв26770 0.0 102997
06:00+5юв24810 0.0 102869
09:00+9вюв48620 0.0 1028350
12:00+13юв46420 0.0 10261137
15:00+16юв353123 0.0 10241388
18:00+14юв3645100 0.0 1022508
21:00+10юв2881100 0.0 1023200
13 апреля, вт
вт1300:00+8ююв379566 0.0 1023257
03:00+7ююз119697 0.0 102210
06:00+8юв119581 0.0 102213
09:00+12вюв2379100 0.0 1021292
12:00+14в136898 0.0 1020556
15:00+17юв2463100 0.5 1019998
18:00+15юв2476100 0.3 1018131
21:00+12в2289100 0.7 101859
14 апреля, ср
ср1400:00+12вюв269446 0.7 1018173
03:00+11вюв269499 0.7 1017228
06:00+9юв2896100 0.0 1016271
09:00+10юв3992100 0.1 1016442
12:00+12юв3882100 0.1 1017525
15:00+15ююв356186 0.1 10161200
18:00+15ююв125991 0.1 1015757
21:00+11св117683 0.3 101611
15 апреля, чт
чт1500:00+9ссв2691100 0.0 1015114
03:00+10ссв3798100 2.1 1014414
06:00+9св2596100 2.7 1014202
09:00+10ссв41092100 3.2 1014608
12:00+12ссв4881100 0.3 1014986
15:00+12ссв577995 1.1 1014944
18:00+9ссв6109197 0.3 1015612
21:00+9ссв51092100 0.4 1016493